| time (UTC) | temp F | wind direction | speed knots | gust knots | rain 1hr in | rain 24hr in | rain mn in | humidity % | barometer mb |
| 20260510120045 | 67 | 0 | 0.0 | 0.9 | 0.00 | 0.05 | 0.00 | 91 | 1011.1 |
| 20260510120018 | 67 | 146 | 0.0 | 0.9 | 0.00 | 0.05 | 0.00 | 91 | 1013.4 |
| 20260510114551 | 67 | 146 | 0.0 | 1.7 | 0.00 | 0.05 | 0.00 | 90 | 1011.3 |
| 20260510114513 | 67 | 146 | 0.0 | 1.7 | 0.00 | 0.05 | 0.00 | 90 | 1013.5 |
| 20260510113044 | 67 | 146 | 0.0 | 1.7 | 0.00 | 0.05 | 0.00 | 89 | 1011.2 |
| 20260510113004 | 67 | 146 | 0.0 | 1.7 | 0.00 | 0.05 | 0.00 | 90 | 1013.5 |
| 20260510111551 | 68 | 0 | 0.0 | 3.5 | 0.00 | 0.05 | 0.00 | 89 | 1011.0 |
| 20260510111502 | 68 | 146 | 0.0 | 3.5 | 0.00 | 0.05 | 0.00 | 89 | 1013.4 |
| 20260510110045 | 68 | 0 | 0.9 | 2.6 | 0.00 | 0.05 | 0.00 | 89 | 1011.3 |
| 20260510110002 | 68 | 142 | 0.9 | 2.6 | 0.00 | 0.05 | 0.00 | 89 | 1013.4 |
| 20260510104547 | 68 | 0 | 1.7 | 3.5 | 0.00 | 0.05 | 0.00 | 88 | 1011.1 |
| 20260510104501 | 68 | 140 | 1.7 | 3.5 | 0.00 | 0.05 | 0.00 | 89 | 1013.4 |
| 20260510103105 | 68 | 96 | 0.0 | 1.7 | 0.00 | 0.05 | 0.00 | 88 | 1013.4 |
| 20260510103046 | 68 | 0 | 0.0 | 3.5 | 0.00 | 0.05 | 0.00 | 88 | 1011.1 |
| 20260510101600 | 68 | 130 | 0.0 | 1.7 | 0.00 | 0.05 | 0.00 | 88 | 1013.5 |
| 20260510101546 | 68 | 0 | 0.0 | 1.7 | 0.00 | 0.05 | 0.00 | 87 | 1011.3 |
| 20260510100057 | 69 | 130 | 0.0 | 1.7 | 0.00 | 0.05 | 0.00 | 87 | 1013.3 |
| 20260510100053 | 69 | 0 | 0.0 | 1.7 | 0.00 | 0.05 | 0.00 | 86 | 1011.1 |
| 20260510094607 | 69 | 130 | 0.0 | 2.6 | 0.00 | 0.05 | 0.00 | 87 | 1013.4 |
| 20260510094552 | 69 | 130 | 0.0 | 2.6 | 0.00 | 0.05 | 0.00 | 86 | 1011.2 |
| 20260510093111 | 69 | 132 | 0.9 | 2.6 | 0.00 | 0.05 | 0.00 | 86 | 1013.3 |
| 20260510093045 | 69 | 132 | 0.9 | 3.5 | 0.00 | 0.05 | 0.00 | 86 | 1011.1 |
| 20260510091551 | 69 | 180 | 0.9 | 2.6 | 0.00 | 0.05 | 0.00 | 86 | 1012.9 |
| 20260510091544 | 69 | 180 | 0.9 | 2.6 | 0.00 | 0.05 | 0.00 | 85 | 1010.8 |
| 20260510090050 | 70 | 187 | 0.9 | 1.7 | 0.00 | 0.05 | 0.00 | 85 | 1013.1 |
| 20260510090045 | 70 | 187 | 0.9 | 1.7 | 0.00 | 0.05 | 0.00 | 84 | 1010.9 |
| 20260510084547 | 70 | 187 | 0.0 | 0.0 | 0.00 | 0.05 | 0.00 | 84 | 1013.1 |
| 20260510084542 | 70 | 0 | 0.0 | 1.7 | 0.00 | 0.05 | 0.00 | 83 | 1010.7 |
| 20260510083055 | 71 | 0 | 0.0 | 0.9 | 0.00 | 0.05 | 0.00 | 83 | 1010.8 |
| 20260510081544 | 71 | 187 | 0.0 | 1.7 | 0.00 | 0.05 | 0.00 | 82 | 1013.1 |
| 20260510080045 | 72 | 187 | 0.0 | 1.7 | 0.00 | 0.05 | 0.00 | 80 | 1010.7 |
| 20260510080041 | 72 | 187 | 0.0 | 1.7 | 0.00 | 0.05 | 0.00 | 81 | 1013.0 |
| 20260510074547 | 73 | 0 | 0.0 | 0.9 | 0.00 | 0.05 | 0.00 | 79 | 1010.5 |
| 20260510074537 | 73 | 187 | 0.0 | 0.9 | 0.00 | 0.05 | 0.00 | 79 | 1012.8 |
| 20260510073051 | 74 | 0 | 0.0 | 4.3 | 0.00 | 0.05 | 0.00 | 78 | 1010.7 |
| 20260510073045 | 74 | 191 | 0.0 | 3.5 | 0.00 | 0.05 | 0.00 | 79 | 1012.7 |
| 20260510071541 | 74 | 173 | 0.9 | 5.2 | 0.00 | 0.05 | 0.00 | 78 | 1010.8 |
| 20260510071538 | 74 | 173 | 1.7 | 4.3 | 0.00 | 0.05 | 0.00 | 79 | 1013.1 |
| 20260510070044 | 74 | 0 | 0.0 | 6.1 | 0.00 | 0.05 | 0.00 | 79 | 1010.8 |
| 20260510070033 | 74 | 175 | 0.0 | 6.1 | 0.00 | 0.05 | 0.00 | 79 | 1013.0 |
| 20260510064549 | 74 | 188 | 1.7 | 6.1 | 0.00 | 0.05 | 0.00 | 79 | 1010.6 |
| 20260510064532 | 74 | 188 | 1.7 | 6.1 | 0.00 | 0.05 | 0.00 | 80 | 1012.9 |
| 20260510063044 | 75 | 167 | 1.7 | 4.3 | 0.00 | 0.05 | 0.00 | 80 | 1010.7 |
| 20260510063030 | 75 | 167 | 1.7 | 4.3 | 0.00 | 0.05 | 0.00 | 80 | 1013.1 |
| 20260510061542 | 76 | 147 | 0.9 | 4.3 | 0.00 | 0.05 | 0.00 | 79 | 1010.9 |
| 20260510061532 | 76 | 147 | 1.7 | 3.5 | 0.00 | 0.05 | 0.00 | 79 | 1013.1 |
| 20260510060044 | 76 | 0 | 1.7 | 6.1 | 0.00 | 0.05 | 0.00 | 78 | 1010.9 |
| 20260510060036 | 76 | 155 | 0.9 | 5.2 | 0.00 | 0.05 | 0.00 | 78 | 1013.1 |
| 20260510054542 | 77 | 0 | 1.7 | 5.2 | 0.00 | 0.05 | 0.00 | 76 | 1010.8 |
| 20260510054533 | 77 | 140 | 1.7 | 4.3 | 0.00 | 0.05 | 0.00 | 77 | 1013.0 |
| 20260510053042 | 77 | 110 | 1.7 | 6.1 | 0.00 | 0.05 | 0.00 | 76 | 1010.7 |
| 20260510053020 | 77 | 262 | 1.7 | 6.1 | 0.00 | 0.05 | 0.00 | 76 | 1012.9 |
| 20260510051556 | 78 | 142 | 1.7 | 7.8 | 0.00 | 0.05 | 0.00 | 74 | 1010.4 |
| 20260510051517 | 78 | 114 | 1.7 | 7.0 | 0.00 | 0.05 | 0.00 | 75 | 1012.4 |
| 20260510050046 | 78 | 164 | 2.6 | 8.7 | 0.00 | 0.05 | 0.00 | 74 | 1010.3 |
| 20260510050017 | 78 | 165 | 3.5 | 8.7 | 0.00 | 0.05 | 0.00 | 74 | 1012.4 |
| 20260510044547 | 79 | 169 | 2.6 | 7.8 | 0.00 | 0.05 | 0.05 | 73 | 1010.1 |
| 20260510044513 | 79 | 145 | 3.5 | 7.8 | 0.00 | 0.05 | 0.05 | 73 | 1012.4 |
| 20260510043044 | 78 | 134 | 3.5 | 7.8 | 0.00 | 0.05 | 0.05 | 73 | 1010.2 |
| 20260510043013 | 78 | 132 | 2.6 | 7.0 | 0.00 | 0.05 | 0.05 | 74 | 1012.4 |
| 20260510041546 | 78 | 141 | 1.7 | 4.3 | 0.00 | 0.05 | 0.05 | 74 | 1010.1 |
| 20260510041511 | 78 | 142 | 1.7 | 4.3 | 0.00 | 0.05 | 0.05 | 74 | 1012.1 |
| 20260510040050 | 79 | 125 | 0.9 | 6.1 | 0.00 | 0.05 | 0.05 | 73 | 1010.0 |
| 20260510040011 | 79 | 125 | 0.9 | 6.1 | 0.00 | 0.05 | 0.05 | 73 | 1012.0 |
| 20260510034547 | 79 | 128 | 1.7 | 3.5 | 0.00 | 0.05 | 0.05 | 72 | 1009.9 |
| 20260510034519 | 79 | 129 | 1.7 | 3.5 | 0.00 | 0.05 | 0.05 | 73 | 1011.8 |
| 20260510033042 | 80 | 121 | 1.7 | 5.2 | 0.00 | 0.05 | 0.05 | 71 | 1009.8 |
| 20260510033012 | 80 | 121 | 1.7 | 5.2 | 0.00 | 0.05 | 0.05 | 72 | 1011.9 |
| 20260510031543 | 80 | 0 | 0.0 | 3.5 | 0.00 | 0.05 | 0.05 | 70 | 1009.7 |
| 20260510031511 | 80 | 115 | 0.0 | 3.5 | 0.00 | 0.05 | 0.05 | 70 | 1011.6 |
| 20260510030051 | 81 | 111 | 1.7 | 3.5 | 0.00 | 0.05 | 0.05 | 69 | 1009.6 |
| 20260510030017 | 81 | 111 | 1.7 | 3.5 | 0.00 | 0.05 | 0.05 | 69 | 1011.5 |
| 20260510024543 | 81 | 122 | 1.7 | 6.1 | 0.00 | 0.05 | 0.05 | 68 | 1009.5 |
| 20260510024509 | 82 | 123 | 1.7 | 6.1 | 0.00 | 0.05 | 0.05 | 69 | 1011.4 |
| 20260510023044 | 82 | 138 | 2.6 | 7.0 | 0.00 | 0.05 | 0.05 | 67 | 1009.2 |
| 20260510023008 | 82 | 94 | 2.6 | 6.1 | 0.00 | 0.05 | 0.05 | 68 | 1011.2 |
| 20260510021545 | 83 | 130 | 3.5 | 7.8 | 0.00 | 0.05 | 0.05 | 67 | 1009.0 |
| 20260510021507 | 83 | 148 | 2.6 | 7.8 | 0.00 | 0.05 | 0.05 | 68 | 1011.0 |
| 20260510020044 | 83 | 136 | 2.6 | 7.0 | 0.00 | 0.05 | 0.05 | 66 | 1008.8 |
| 20260510020006 | 83 | 119 | 2.6 | 7.0 | 0.00 | 0.05 | 0.05 | 67 | 1010.9 |
| 20260510014543 | 84 | 117 | 2.6 | 7.8 | 0.00 | 0.05 | 0.05 | 65 | 1008.5 |
| 20260510014509 | 84 | 134 | 2.6 | 7.8 | 0.00 | 0.05 | 0.05 | 66 | 1010.7 |
| 20260510013041 | 84 | 159 | 2.6 | 6.1 | 0.00 | 0.05 | 0.05 | 63 | 1008.2 |
| 20260510013008 | 84 | 159 | 2.6 | 6.1 | 0.00 | 0.05 | 0.05 | 64 | 1010.3 |
| 20260510011547 | 85 | 167 | 2.6 | 5.2 | 0.00 | 0.05 | 0.05 | 63 | 1008.0 |
| 20260510011508 | 85 | 168 | 2.6 | 5.2 | 0.00 | 0.05 | 0.05 | 63 | 1010.1 |
| 20260510010041 | 86 | 161 | 2.6 | 6.1 | 0.00 | 0.05 | 0.05 | 62 | 1007.8 |
| 20260510010005 | 86 | 160 | 2.6 | 6.1 | 0.00 | 0.05 | 0.05 | 62 | 1009.9 |
| 20260510004539 | 86 | 145 | 2.6 | 7.8 | 0.00 | 0.05 | 0.05 | 61 | 1007.7 |
| 20260510004503 | 86 | 164 | 2.6 | 7.0 | 0.00 | 0.05 | 0.05 | 62 | 1009.7 |
| 20260510003045 | 87 | 204 | 2.6 | 7.8 | 0.00 | 0.05 | 0.05 | 60 | 1007.4 |
| 20260510003006 | 87 | 182 | 1.7 | 7.8 | 0.00 | 0.05 | 0.05 | 61 | 1009.4 |
| 20260510001542 | 88 | 192 | 2.6 | 6.1 | 0.00 | 0.05 | 0.05 | 60 | 1007.2 |
| 20260510001501 | 88 | 210 | 2.6 | 6.1 | 0.00 | 0.05 | 0.05 | 61 | 1009.3 |
| 20260510000103 | 89 | 194 | 2.6 | 6.1 | 0.00 | 0.05 | 0.05 | 60 | 1009.4 |
| 20260510000044 | 89 | 207 | 1.7 | 7.0 | 0.00 | 0.05 | 0.05 | 60 | 1007.3 |
| 20260509234559 | 89 | 192 | 2.6 | 6.1 | 0.00 | 0.05 | 0.05 | 60 | 1009.6 |
| 20260509234543 | 89 | 185 | 2.6 | 6.1 | 0.00 | 0.05 | 0.05 | 59 | 1007.4 |
| 20260509233059 | 89 | 154 | 3.5 | 7.8 | 0.00 | 0.05 | 0.05 | 58 | 1009.6 |
| 20260509233043 | 89 | 167 | 3.5 | 8.7 | 0.00 | 0.05 | 0.05 | 58 | 1007.4 |
| 20260509231604 | 89 | 201 | 1.7 | 7.0 | 0.00 | 0.05 | 0.05 | 59 | 1009.7 |
| 20260509231545 | 89 | 206 | 2.6 | 7.0 | 0.00 | 0.05 | 0.05 | 58 | 1007.5 |
| 20260509230100 | 89 | 249 | 0.0 | 3.5 | 0.00 | 0.05 | 0.05 | 59 | 1009.5 |
| 20260509230055 | 89 | 0 | 0.0 | 3.5 | 0.00 | 0.05 | 0.05 | 58 | 1007.4 |
| 20260509224601 | 89 | 244 | 0.9 | 3.5 | 0.00 | 0.05 | 0.05 | 58 | 1009.6 |
| 20260509224544 | 89 | 244 | 0.9 | 5.2 | 0.00 | 0.05 | 0.05 | 57 | 1007.4 |
| 20260509223057 | 90 | 216 | 0.9 | 5.2 | 0.00 | 0.05 | 0.05 | 56 | 1009.6 |
| 20260509223043 | 90 | 215 | 0.0 | 5.2 | 0.00 | 0.05 | 0.05 | 56 | 1007.4 |
| 20260509221556 | 90 | 198 | 0.9 | 3.5 | 0.00 | 0.05 | 0.05 | 57 | 1009.6 |
| 20260509221546 | 90 | 0 | 0.0 | 3.5 | 0.00 | 0.05 | 0.05 | 57 | 1007.4 |
| 20260509220103 | 90 | 243 | 2.6 | 7.0 | 0.00 | 0.05 | 0.05 | 55 | 1009.7 |
| 20260509220048 | 90 | 217 | 0.9 | 6.1 | 0.00 | 0.05 | 0.05 | 55 | 1007.4 |
| 20260509214600 | 91 | 239 | 1.7 | 5.2 | 0.00 | 0.05 | 0.05 | 57 | 1009.7 |
| 20260509214540 | 91 | 246 | 0.9 | 5.2 | 0.00 | 0.05 | 0.05 | 55 | 1007.4 |
| 20260509213119 | 92 | 169 | 0.0 | 5.2 | 0.00 | 0.05 | 0.05 | 54 | 1009.8 |
| 20260509213057 | 92 | 0 | 0.0 | 3.5 | 0.00 | 0.05 | 0.05 | 54 | 1007.5 |
| 20260509211553 | 92 | 238 | 0.9 | 6.1 | 0.00 | 0.05 | 0.05 | 57 | 1010.0 |
| 20260509211542 | 92 | 225 | 1.7 | 6.1 | 0.00 | 0.05 | 0.05 | 57 | 1007.7 |
| 20260509210100 | 91 | 274 | 0.0 | 5.2 | 0.00 | 0.05 | 0.05 | 57 | 1010.3 |
| 20260509210058 | 91 | 0 | 0.9 | 5.2 | 0.00 | 0.05 | 0.05 | 57 | 1007.9 |
| 20260509204545 | 90 | 234 | 0.0 | 8.7 | 0.00 | 0.05 | 0.05 | 59 | 1010.5 |
| 20260509204542 | 90 | 0 | 0.0 | 8.7 | 0.00 | 0.05 | 0.05 | 58 | 1008.0 |
| 20260509203043 | 90 | 263 | 2.6 | 7.8 | 0.00 | 0.05 | 0.05 | 61 | 1010.8 |
| 20260509201543 | 90 | 240 | 0.9 | 6.1 | 0.00 | 0.05 | 0.05 | 60 | 1008.7 |
| 20260509201539 | 90 | 250 | 1.7 | 5.2 | 0.00 | 0.05 | 0.05 | 60 | 1011.1 |
| 20260509200043 | 89 | 0 | 1.7 | 7.0 | 0.00 | 0.05 | 0.05 | 62 | 1009.0 |
| 20260509200037 | 89 | 205 | 0.9 | 7.0 | 0.00 | 0.05 | 0.05 | 64 | 1011.3 |
| 20260509194542 | 89 | 0 | 0.0 | 7.0 | 0.00 | 0.05 | 0.05 | 67 | 1009.3 |
| 20260509194536 | 89 | 252 | 0.0 | 7.0 | 0.00 | 0.05 | 0.05 | 67 | 1011.6 |
| 20260509193044 | 89 | 0 | 0.0 | 6.1 | 0.00 | 0.05 | 0.05 | 62 | 1009.6 |
| 20260509193042 | 89 | 306 | 0.0 | 6.1 | 0.00 | 0.05 | 0.05 | 62 | 1011.9 |
| 20260509191546 | 89 | 0 | 0.9 | 7.8 | 0.00 | 0.05 | 0.05 | 65 | 1009.8 |
| 20260509191539 | 89 | 238 | 0.9 | 7.0 | 0.00 | 0.05 | 0.05 | 66 | 1012.0 |
| 20260509190043 | 88 | 213 | 1.7 | 6.1 | 0.00 | 0.05 | 0.05 | 64 | 1009.8 |
| 20260509190032 | 88 | 213 | 0.9 | 6.1 | 0.00 | 0.05 | 0.05 | 64 | 1012.1 |
| 20260509184553 | 88 | 0 | 0.9 | 6.1 | 0.00 | 0.05 | 0.05 | 68 | 1009.9 |
| 20260509184536 | 88 | 258 | 0.9 | 6.1 | 0.00 | 0.05 | 0.05 | 68 | 1012.3 |
| 20260509183042 | 87 | 271 | 0.9 | 4.3 | 0.00 | 0.05 | 0.05 | 67 | 1010.1 |
| 20260509183031 | 87 | 259 | 0.9 | 4.3 | 0.00 | 0.05 | 0.05 | 68 | 1012.4 |
| 20260509181556 | 87 | 0 | 0.9 | 8.7 | 0.00 | 0.05 | 0.05 | 66 | 1010.2 |
| 20260509181526 | 87 | 264 | 0.9 | 8.7 | 0.00 | 0.05 | 0.05 | 67 | 1012.5 |
| 20260509180049 | 86 | 225 | 2.6 | 7.8 | 0.00 | 0.05 | 0.05 | 69 | 1010.4 |
| 20260509180023 | 86 | 227 | 1.7 | 7.8 | 0.00 | 0.05 | 0.05 | 69 | 1012.8 |
| 20260509174546 | 85 | 284 | 1.7 | 7.0 | 0.00 | 0.05 | 0.05 | 71 | 1010.4 |
| 20260509174520 | 85 | 288 | 1.7 | 7.0 | 0.00 | 0.05 | 0.05 | 72 | 1013.0 |
| 20260509173046 | 84 | 248 | 0.9 | 7.8 | 0.00 | 0.05 | 0.05 | 75 | 1010.6 |
| 20260509173019 | 84 | 248 | 0.9 | 7.8 | 0.00 | 0.05 | 0.05 | 75 | 1013.1 |
| 20260509171543 | 82 | 274 | 1.7 | 7.8 | 0.00 | 0.05 | 0.05 | 78 | 1010.8 |
| 20260509171513 | 82 | 269 | 1.7 | 7.8 | 0.00 | 0.05 | 0.05 | 78 | 1013.3 |
| 20260509170048 | 82 | 227 | 1.7 | 6.1 | 0.00 | 0.05 | 0.05 | 78 | 1010.8 |
| 20260509170014 | 82 | 217 | 0.9 | 6.1 | 0.00 | 0.05 | 0.05 | 77 | 1013.5 |
| 20260509164543 | 81 | 277 | 0.9 | 7.8 | 0.00 | 0.05 | 0.05 | 82 | 1010.7 |
| 20260509164507 | 80 | 277 | 0.9 | 6.1 | 0.00 | 0.05 | 0.05 | 83 | 1013.4 |
| 20260509163043 | 79 | 216 | 2.6 | 7.8 | 0.00 | 0.05 | 0.05 | 85 | 1010.4 |
| 20260509163004 | 79 | 221 | 2.6 | 7.8 | 0.00 | 0.05 | 0.05 | 86 | 1013.2 |
| 20260509161605 | 77 | 226 | 0.0 | 7.8 | 0.00 | 0.05 | 0.05 | 91 | 1013.6 |
| 20260509161542 | 77 | 0 | 0.9 | 7.8 | 0.00 | 0.05 | 0.05 | 91 | 1010.8 |
| 20260509160058 | 77 | 234 | 0.9 | 4.3 | 0.00 | 0.05 | 0.05 | 96 | 1013.6 |
| 20260509160043 | 76 | 0 | 0.0 | 3.5 | 0.00 | 0.05 | 0.05 | 96 | 1011.0 |
| 20260509154617 | 75 | 0 | 0.0 | 3.5 | 0.00 | 0.05 | 0.05 | 97 | 1011.1 |
| 20260509154603 | 75 | 183 | 0.0 | 2.6 | 0.00 | 0.05 | 0.05 | 97 | 1013.8 |
| 20260509153101 | 74 | 173 | 1.7 | 5.2 | 0.00 | 0.05 | 0.05 | 97 | 1014.0 |
| 20260509153058 | 74 | 180 | 2.6 | 6.1 | 0.00 | 0.05 | 0.05 | 97 | 1011.5 |
| 20260509151550 | 74 | 167 | 1.7 | 4.3 | 0.00 | 0.05 | 0.05 | 97 | 1014.0 |
| 20260509151548 | 74 | 167 | 1.7 | 4.3 | 0.00 | 0.05 | 0.05 | 97 | 1011.5 |
| 20260509150047 | 74 | 176 | 0.9 | 2.6 | 0.00 | 0.05 | 0.05 | 97 | 1011.5 |
| 20260509144542 | 74 | 194 | 0.9 | 2.6 | 0.00 | 0.05 | 0.05 | 97 | 1011.3 |
| 20260509144540 | 74 | 195 | 0.9 | 2.6 | 0.00 | 0.05 | 0.05 | 98 | 1013.9 |
| 20260509143051 | 73 | 0 | 0.0 | 3.5 | 0.00 | 0.05 | 0.05 | 97 | 1011.5 |
| 20260509143037 | 73 | 150 | 0.0 | 1.7 | 0.00 | 0.05 | 0.05 | 98 | 1014.1 |
| 20260509141546 | 73 | 101 | 0.0 | 2.6 | 0.00 | 0.05 | 0.05 | 97 | 1011.6 |
| 20260509141535 | 73 | 101 | 0.9 | 2.6 | 0.00 | 0.05 | 0.05 | 97 | 1014.0 |
| 20260509140052 | 73 | 0 | 0.0 | 0.9 | 0.00 | 0.05 | 0.05 | 97 | 1011.0 |
| 20260509140042 | 73 | 338 | 0.0 | 0.0 | 0.00 | 0.05 | 0.05 | 97 | 1013.5 |
| 20260509134542 | 73 | 0 | 0.0 | 4.3 | 0.00 | 0.05 | 0.05 | 97 | 1010.3 |
| 20260509134538 | 73 | 338 | 0.0 | 4.3 | 0.00 | 0.05 | 0.05 | 97 | 1013.0 |
| 20260509133041 | 73 | 24 | 0.9 | 3.5 | 0.00 | 0.05 | 0.05 | 97 | 1010.2 |
| 20260509133029 | 73 | 24 | 0.9 | 3.5 | 0.00 | 0.05 | 0.05 | 98 | 1012.9 |
| 20260509131544 | 73 | 145 | 0.0 | 5.2 | 0.05 | 0.05 | 0.05 | 97 | 1010.3 |
| 20260509131532 | 73 | 145 | 0.0 | 3.5 | 0.05 | 0.05 | 0.05 | 98 | 1013.0 |
| 20260509130046 | 73 | 92 | 1.7 | 3.5 | 0.05 | 0.05 | 0.05 | 97 | 1011.0 |
| 20260509130022 | 73 | 92 | 1.7 | 3.5 | 0.05 | 0.05 | 0.05 | 97 | 1013.4 |
| 20260509124543 | 73 | 46 | 0.9 | 3.5 | 0.05 | 0.05 | 0.05 | 97 | 1010.7 |
| 20260509124518 | 73 | 46 | 0.9 | 3.5 | 0.05 | 0.05 | 0.05 | 98 | 1013.3 |
| 20260509123043 | 72 | 0 | 2.6 | 5.2 | 0.05 | 0.05 | 0.05 | 96 | 1011.0 |
| 20260509123017 | 72 | 55 | 2.6 | 5.2 | 0.05 | 0.05 | 0.05 | 97 | 1013.5 |
| 20260509121545 | 72 | 0 | 1.7 | 8.7 | 0.00 | 0.00 | 0.00 | 96 | 1011.0 |
| 20260509121512 | 72 | 41 | 1.7 | 8.7 | 0.00 | 0.00 | 0.00 | 97 | 1013.7 |